Knox, IN

2:04 PM CST on February 06, 2016 (GMT -0600)
Starke County

Weather History for KOXI - May, 2013

Change the Weather History Date:

Tuesday, May 7, 2013

  Actual Average (KVPZ) Record (KVPZ)
Temperature  
Mean Temperature 60 °F 56 °F  
Max Temperature 82 °F 68 °F 86 °F (2015)
Min Temperature 45 °F 45 °F 38 °F (2006)
Degree Days  
Heating Degree Days 4 9  
Month to date heating degree days 69  
Since 1 July heating degree days 6128  
Cooling Degree Days 0 1  
Month to date cooling degree days 3  
Year to date cooling degree days 8  
Growing Degree Days 10 (Base 50)    
Moisture  
Dew Point 47 °F    
Average Humidity 62    
Maximum Humidity 93    
Minimum Humidity 35    
Precipitation  
Precipitation 0.00 in 0.12 in 1.25 in (1998)
Month to date precipitation 0.93  
Year to date precipitation 10.11  
Sea Level Pressure  
Sea Level Pressure 29.99 in    
Wind  
Wind Speed 3 mph (NNE)    
Max Wind Speed 13 mph    
Max Gust Speed 20 mph    
Visibility 10 miles    
Events      
T = Trace of Precipitation, MM = Missing Value Source: NWS Daily Summary

Daily Weather History Graph

Daily Weather History Graph

Search for Another Location

Airport or City:

Trip Planner

Search our weather history database for the weather conditions in past years. The results will help you decide how hot, cold, wet, or windy it might be!

Date:

Astronomy

May. 07, 2013 Rise Set
Actual Time 5:36 AM CDT 7:50 PM CDT
Civil Twilight 5:05 AM CDT 8:21 PM CDT
Nautical Twilight 4:27 AM CDT 8:59 PM CDT
Astronomical Twilight 3:46 AM CDT 9:41 PM CDT
Moon 4:11 AM CDT (5/7) 5:48 PM CDT (5/7)
Length of Visible Light 15h 15m
Length of Day
14h 14m
Waning Crescent, 5% of the Moon is Illuminated
May 7
Waning Crescent
May 9
New
May 17
First Quarter
May 24
Full
May 31
Last Quarter

Hourly Weather History & Observations

Time (CDT) Temp. Windchill Dew Point Humidity Pressure Visibility Wind Dir Wind Speed Gust Speed Precip Events Conditions
12:15 AM 53.2 °F - 42.8 °F 68% 29.99 in 10.0 mi Calm Calm - N/A   Clear
12:35 AM 52.5 °F - 43.5 °F 71% 29.99 in 10.0 mi Calm Calm - N/A   Clear
12:55 AM 52.2 °F - 44.2 °F 74% 29.99 in 10.0 mi Calm Calm - N/A   Scattered Clouds
1:15 AM 50.9 °F - 45.1 °F 81% 29.98 in 10.0 mi NW 3.5 mph - N/A   Clear
1:35 AM 49.3 °F - 45.3 °F 86% 29.98 in 10.0 mi NNW 3.5 mph - N/A   Mostly Cloudy
1:55 AM 49.1 °F - 46.0 °F 89% 29.98 in 10.0 mi Calm Calm - N/A   Mostly Cloudy
2:15 AM 48.6 °F - 46.2 °F 92% 29.98 in 10.0 mi NW 3.5 mph - N/A   Scattered Clouds
2:35 AM 47.8 °F - 45.0 °F 90% 29.98 in 10.0 mi NW 4.6 mph - N/A   Clear
2:55 AM 47.3 °F - 44.2 °F 89% 29.98 in 10.0 mi North 4.6 mph - N/A   Clear
3:15 AM 47.1 °F - 44.1 °F 89% 29.98 in 10.0 mi NNW 4.6 mph - N/A   Clear
3:35 AM 46.6 °F - 43.7 °F 90% 29.98 in 10.0 mi Calm Calm - N/A   Clear
3:55 AM 47.5 °F - 43.2 °F 85% 29.98 in 10.0 mi Calm Calm - N/A   Clear
4:15 AM 47.1 °F - 43.0 °F 86% 29.98 in 10.0 mi Calm Calm - N/A   Clear
4:35 AM 46.2 °F 45.0 °F 43.2 °F 89% 29.98 in 10.0 mi North 3.5 mph - N/A   Clear
4:55 AM 45.9 °F - 44.1 °F 93% 29.98 in 10.0 mi Calm Calm - N/A   Scattered Clouds
5:15 AM 47.1 °F - 44.4 °F 90% 29.99 in 10.0 mi Calm Calm - N/A   Scattered Clouds
5:35 AM 46.6 °F - 44.8 °F 93% 29.99 in 10.0 mi Calm Calm - N/A   Scattered Clouds
5:55 AM 46.2 °F - 44.2 °F 93% 30.00 in 10.0 mi Calm Calm - N/A   Mostly Cloudy
6:15 AM 46.8 °F - 44.1 °F 90% 30.00 in 10.0 mi Calm Calm - N/A   Mostly Cloudy
6:35 AM 47.5 °F - 45.1 °F 92% 30.01 in 10.0 mi Calm Calm - N/A   Scattered Clouds
6:55 AM 48.6 °F - 46.4 °F 92% 30.01 in 10.0 mi North 3.5 mph - N/A   Clear
7:15 AM 50.9 °F - 47.5 °F 88% 30.01 in 10.0 mi Calm Calm - N/A   Clear
7:35 AM 53.1 °F - 47.8 °F 82% 30.02 in 10.0 mi Calm Calm - N/A   Clear
7:55 AM 55.6 °F - 48.9 °F 78% 30.02 in 10.0 mi NE 3.5 mph - N/A   Clear
8:15 AM 58.8 °F - 49.8 °F 72% 30.03 in 10.0 mi Calm Calm - N/A   Clear
8:35 AM 61.7 °F - 51.4 °F 69% 30.03 in 10.0 mi Calm Calm - N/A   Clear
8:55 AM 64.2 °F - 52.5 °F 66% 30.03 in 10.0 mi East 3.5 mph - N/A   Clear
9:15 AM 65.8 °F - 53.2 °F 64% 30.03 in 10.0 mi Calm Calm - N/A   Clear
9:35 AM 67.3 °F - 53.8 °F 62% 30.03 in 10.0 mi ENE 4.6 mph - N/A   Clear
9:55 AM 68.2 °F - 53.1 °F 58% 30.02 in 10.0 mi Calm Calm - N/A   Clear
10:15 AM 68.9 °F - 52.9 °F 57% 30.02 in 10.0 mi Calm Calm - N/A   Clear
10:35 AM 70.2 °F - 52.0 °F 52% 30.02 in 10.0 mi ENE 3.5 mph - N/A   Clear
10:55 AM 71.4 °F - 51.1 °F 49% 30.01 in 10.0 mi ENE 4.6 mph - N/A   Clear
11:35 AM 72.3 °F - 52.0 °F 49% 30.01 in 10.0 mi ENE 6.9 mph - N/A   Scattered Clouds
11:55 AM 73.4 °F - 50.9 °F 45% 30.00 in 10.0 mi NE 5.8 mph 16.1 mph N/A   Scattered Clouds
12:15 PM 74.3 °F - 50.7 °F 43% 30.00 in 10.0 mi East 12.7 mph 17.3 mph N/A   Scattered Clouds
12:35 PM 74.5 °F - 49.8 °F 42% 30.00 in 10.0 mi ENE 10.4 mph 17.3 mph N/A   Scattered Clouds
12:55 PM 74.1 °F - 49.8 °F 42% 29.99 in 10.0 mi East 5.8 mph - N/A   Scattered Clouds
1:15 PM 74.3 °F - 48.7 °F 40% 29.99 in 10.0 mi SE 9.2 mph - N/A   Scattered Clouds
1:35 PM 75.0 °F - 49.6 °F 41% 29.99 in 10.0 mi ENE 11.5 mph 19.6 mph N/A   Scattered Clouds
1:55 PM 75.2 °F - 48.4 °F 39% 29.98 in 10.0 mi East 8.1 mph - N/A   Scattered Clouds
2:15 PM 74.3 °F - 47.8 °F 39% 29.98 in 10.0 mi NE 4.6 mph - N/A   Mostly Cloudy
2:35 PM 75.6 °F - 46.9 °F 36% 29.97 in 10.0 mi East 11.5 mph 17.3 mph N/A   Scattered Clouds
2:55 PM 76.3 °F - 46.9 °F 35% 29.97 in 10.0 mi East 4.6 mph - N/A   Clear
3:15 PM 74.3 °F - 46.4 °F 37% 29.97 in 10.0 mi ENE 5.8 mph - N/A   Mostly Cloudy
3:35 PM 72.0 °F - 47.8 °F 42% 29.97 in 10.0 mi North 8.1 mph - N/A   Overcast
3:55 PM 71.6 °F - 48.4 °F 44% 29.97 in 10.0 mi East 6.9 mph - N/A   Overcast
4:15 PM 71.6 °F - 47.5 °F 42% 29.97 in 10.0 mi East 3.5 mph - N/A   Overcast
4:35 PM 71.6 °F - 49.3 °F 45% 29.97 in 10.0 mi North 8.1 mph - N/A   Overcast
4:55 PM 71.4 °F - 48.7 °F 45% 29.97 in 10.0 mi North 9.2 mph - N/A   Overcast
5:15 PM 71.4 °F - 47.7 °F 43% 29.97 in 10.0 mi North 11.5 mph - N/A   Overcast
5:35 PM 71.1 °F - 46.9 °F 42% 29.97 in 10.0 mi NNE 11.5 mph - N/A   Overcast
5:55 PM 70.5 °F - 46.4 °F 42% 29.97 in 10.0 mi NNE 10.4 mph - N/A   Overcast
6:15 PM 70.0 °F - 46.2 °F 43% 29.97 in 10.0 mi North 9.2 mph - N/A   Overcast
6:35 PM 69.8 °F - 46.2 °F 43% 29.97 in 10.0 mi NNE 8.1 mph - N/A   Overcast
7:15 PM 68.9 °F - 45.1 °F 42% 29.98 in 10.0 mi NNE 6.9 mph - N/A   Overcast
7:35 PM 68.2 °F - 45.7 °F 44% 29.98 in 10.0 mi NNE 5.8 mph - N/A   Overcast
7:55 PM 67.1 °F - 46.6 °F 48% 29.98 in 10.0 mi NNE 6.9 mph - N/A   Overcast
8:15 PM 66.0 °F - 45.7 °F 48% 29.99 in 10.0 mi NNE 5.8 mph - N/A   Overcast
8:35 PM 65.1 °F - 45.3 °F 49% 29.99 in 10.0 mi North 4.6 mph - N/A   Overcast
8:55 PM 63.9 °F - 45.9 °F 52% 30.00 in 10.0 mi North 4.6 mph - N/A   Overcast
9:15 PM 63.7 °F - 44.8 °F 50% 30.00 in 10.0 mi North 5.8 mph - N/A   Overcast
9:35 PM 63.1 °F - 43.5 °F 49% 30.01 in 10.0 mi North 5.8 mph - N/A   Overcast
9:55 PM 62.1 °F - 43.7 °F 51% 30.01 in 10.0 mi North 6.9 mph - N/A   Overcast
10:15 PM 60.8 °F - 44.2 °F 54% 30.01 in 10.0 mi North 5.8 mph - N/A   Overcast
10:35 PM 60.4 °F - 44.6 °F 56% 30.01 in 10.0 mi North 4.6 mph - N/A   Overcast
10:55 PM 60.3 °F - 44.8 °F 57% 30.01 in 10.0 mi North 3.5 mph - N/A   Overcast
11:15 PM 60.1 °F - 45.0 °F 57% 30.01 in 10.0 mi NNE 3.5 mph - N/A   Overcast
11:35 PM 59.7 °F - 45.1 °F 59% 30.01 in 10.0 mi NNE 4.6 mph - N/A   Overcast
11:55 PM 59.5 °F - 45.1 °F 59% 30.01 in 10.0 mi NNE 4.6 mph - N/A   Overcast